Alexandria, Egypt

2:02 AM EET on December 18, 2017 (GMT +0200)
Alexandria

Weather History for HEAX - October, 2013

Change the Weather History Date:

Tuesday, October 29, 2013

  Actual Average Record
Temperature  
Mean Temperature 66 °F -  
Max Temperature 76 °F 72 °F 83 °F (2012)
Min Temperature 57 °F 57 °F 55 °F (1996)
Cooling Degree Days 2    
Growing Degree Days 16 (Base 50)    
Moisture  
Dew Point 60 °F    
Average Humidity 74    
Maximum Humidity 94    
Minimum Humidity 48    
Precipitation  
Precipitation 0.00 in 0.04 in - ()
Sea Level Pressure  
Sea Level Pressure 29.97 in    
Wind  
Wind Speed 5 mph ()    
Max Wind Speed 14 mph    
Max Gust Speed -    
Visibility 5.8 miles    
Events      
Averages and records for this station are not official NWS values.
T = Trace of Precipitation, MM = Missing Value Source: Averaged Metar Reports

Daily Weather History Graph

Daily Weather History Graph

Search for Another Location

Airport or City:

Trip Planner

Search our weather history database for the weather conditions in past years. The results will help you decide how hot, cold, wet, or windy it might be!

Date:

Astronomy

Oct. 29, 2013 Rise Set
Actual Time 6:13 AM EET 5:14 PM EET
Civil Twilight 5:48 AM EET 5:39 PM EET
Nautical Twilight 5:19 AM EET 6:07 PM EET
Astronomical Twilight 4:51 AM EET 6:35 PM EET
Moon 1:04 AM EET (10/29) 1:59 PM EET (10/29)
Length of Visible Light 11h 50m
Length of Day
11h 00m
Waning Crescent, 27% of the Moon is Illuminated
Oct 29
Waning Crescent
Nov 3
New
Nov 10
First Quarter
Nov 17
Full
Nov 25
Last Quarter

Hourly Weather History & Observations

Time (EET) Temp. Dew Point Humidity Pressure Visibility Wind Dir Wind Speed Gust Speed Precip Events Conditions
12:00 AM 66.2 °F 57.2 °F 73% 30.01 in 6.2 mi North 2.3 mph - N/A   Partly Cloudy
1:00 AM 62.6 °F 59.0 °F 88% 29.98 in 6.2 mi Calm Calm - N/A   Scattered Clouds
2:00 AM 59.0 °F 55.4 °F 88% 29.98 in 6.2 mi Calm Calm - N/A   Scattered Clouds
3:00 AM 59.0 °F 55.4 °F 88% 29.98 in 6.2 mi Calm Calm - N/A   Scattered Clouds
4:00 AM 57.2 °F 55.4 °F 94% 29.98 in 5.0 mi Calm Calm - N/A   Scattered Clouds
5:00 AM 57.2 °F 55.4 °F 94% 29.98 in 5.0 mi Calm Calm - N/A   Scattered Clouds
6:00 AM 59.0 °F 57.2 °F 94% 29.98 in 5.0 mi Calm Calm - N/A   Scattered Clouds
7:00 AM 59.0 °F 57.2 °F 94% 29.95 in 3.7 mi South 2.3 mph - N/A   Scattered Clouds
8:00 AM 69.8 °F 60.8 °F 73% 30.01 in 3.7 mi Calm Calm - N/A   Scattered Clouds
9:00 AM 69.8 °F 60.8 °F 73% 30.01 in 6.2 mi North 9.2 mph - N/A   Scattered Clouds
10:00 AM 71.6 °F 60.8 °F 69% 30.01 in 6.2 mi North 11.5 mph - N/A   Scattered Clouds
11:00 AM 75.2 °F 60.8 °F 61% 29.98 in 6.2 mi NNW 13.8 mph - N/A   Scattered Clouds
12:00 PM 75.2 °F 59.0 °F 57% 29.98 in 6.2 mi NW 11.5 mph - N/A   Scattered Clouds
1:00 PM 75.2 °F 59.0 °F 57% 29.95 in 6.2 mi North 11.5 mph - N/A   Scattered Clouds
2:00 PM 76 °F 60 °F 48% 29.95 in 6 mi North 13.8 mph - -   Scattered Clouds
2:00 PM 75.2 °F 60.8 °F 61% 29.95 in 6.2 mi North 13.8 mph - N/A   Partly Cloudy
3:00 PM 75.2 °F 60.8 °F 61% 29.92 in 6.2 mi NNW 13.8 mph - N/A   Partly Cloudy
4:00 PM 73.4 °F 60.8 °F 65% 29.92 in 6.2 mi North 13.8 mph - N/A   Partly Cloudy
5:00 PM 71.6 °F 60.8 °F 69% 29.92 in 6.2 mi North 11.5 mph - N/A   Partly Cloudy
6:00 PM 71.6 °F 62.6 °F 73% 29.95 in 6.2 mi North 9.2 mph - N/A   Partly Cloudy
7:00 PM 69.8 °F 62.6 °F 78% 29.95 in 6.2 mi North 9.2 mph - N/A   Partly Cloudy
8:00 PM 71 °F 62 °F 67% 29.96 in 6 mi North 6.9 mph - -   Scattered Clouds
8:00 PM 69.8 °F 62.6 °F 78% 29.95 in 6.2 mi North 6.9 mph - N/A   Partly Cloudy
9:00 PM 69.8 °F 60.8 °F 73% 29.95 in 6.2 mi North 11.5 mph - N/A   Partly Cloudy
10:00 PM 69.8 °F 60.8 °F 73% 29.95 in - North 6.9 mph - N/A   Clear
11:00 PM 69.8 °F 60.8 °F 73% 29.95 in - NNW 9.2 mph - N/A   Clear